Wind_Speed
25 29 33 38 43 46 49 49 48 47 45 45 45 45 45 45 45 44 44 43 41 40 40 40 40 40 40 40 40 40 40 40 40 41 41 42 42 43 43 44 44 45 45 45 45 46 46 47 48 49 50 51 52 53 54 55 55 56 56 57 57 58 58 57 57 56 54 52 50 48 46 45 44 43 43 43 43 43 43 43 43 44 45 46 47 48 49 50
23 26 29 34 38 43 47 49 50 49 48 46 45 45 45 45 45 45 44 43 41 41 40 40 41 40 40 40 40 41 41 40 41 41 41 42 42 43 43 44 44 44 45 45 45 46 47 47 48 49 50 51 52 53 54 55 55 55 56 56 56 56 56 55 54 52 51 49 47 46 44 43 43 43 42 42 43 43 42 43 44 45 46 47 48 49 50 52
21 23 26 30 33 38 42 47 50 51 50 48 47 46 46 46 45 45 45 44 42 42 40 41 41 41 41 41 40 41 41 41 41 40 41 42 42 42 43 43 44 44 45 46 46 47 47 48 49 49 50 51 52 53 53 54 54 55 55 55 55 55 54 53 51 49 47 46 44 44 43 43 43 43 43 43 43 42 42 43 45 47 48 48 50 51 53 54
18 21 24 27 30 34 38 43 47 50 51 50 49 47 46 46 46 45 44 44 43 43 42 41 42 41 40 40 40 40 40 40 40 40 40 41 41 42 42 43 44 45 46 46 47 47 48 49 49 50 50 51 52 52 53 53 54 54 54 54 54 53 52 50 48 46 44 43 42 42 43 43 43 43 43 43 43 43 43 45 47 48 49 50 51 53 55 56
18 21 23 26 29 32 35 38 42 45 48 50 51 49 48 47 46 45 44 43 43 43 42 42 42 41 40 39 39 40 40 39 39 39 39 40 41 41 42 43 44 45 46 46 47 47 48 49 49 50 50 51 51 52 52 52 53 53 53 53 52 51 49 47 45 43 42 42 42 42 43 44 44 44 44 43 43 43 44 46 48 49 50 52 53 55 56 57
18 20 21 23 26 29 34 36 37 40 44 48 50 51 50 48 47 46 45 44 42 42 42 42 42 40 40 39 39 39 39 39 39 39 39 40 40 41 42 42 43 44 45 45 46 47 47 48 48 49 49 49 50 51 51 52 52 52 52 51 50 49 47 45 43 42 42 42 43 43 44 44 44 45 45 44 45 45 46 48 50 51 52 53 54 56 57 59
16 17 17 18 20 25 31 34 35 36 39 43 46 50 50 50 49 47 46 45 43 42 42 42 42 41 40 39 39 39 39 39 39 39 39 40 40 40 41 42 42 43 44 45 45 46 46 46 47 47 48 49 50 50 51 52 52 51 51 50 49 47 45 43 42 42 43 43 44 44 44 44 44 45 46 45 46 47 48 49 51 52 53 54 56 57 59 61
13 13 13 13 14 19 25 31 33 34 36 38 42 47 49 50 49 48 47 45 43 42 43 43 43 42 41 39 39 39 39 39 39 39 39 39 39 40 41 42 42 43 44 44 45 45 45 46 47 47 48 49 50 50 51 51 51 51 50 49 47 45 43 43 43 43 44 44 45 45 45 44 44 46 47 47 48 49 50 51 53 54 55 56 58 60 62 64
10 10 10 9 9 13 19 26 31 34 35 36 39 42 44 46 47 47 47 45 44 43 43 44 43 42 40 39 39 39 39 38 38 37 38 38 39 39 40 41 41 42 43 43 43 44 44 46 47 48 48 49 50 50 51 51 51 51 49 47 45 43 43 43 43 44 44 45 45 46 46 46 45 46 48 49 50 51 52 53 54 56 58 59 61 64 65 66
8 8 7 7 6 8 13 20 27 31 33 35 36 38 39 42 44 45 44 44 45 44 43 44 43 42 40 39 38 37 37 37 37 37 37 37 38 38 39 39 40 40 41 41 42 43 45 46 47 47 48 48 49 49 50 51 51 50 48 46 44 43 43 44 44 44 44 45 45 46 48 48 47 48 49 51 52 53 54 55 56 58 60 63 65 67 68 68
6 6 6 6 4 4 9 16 22 27 31 33 35 35 36 37 40 41 41 42 43 43 42 42 42 41 39 37 36 35 36 36 35 35 35 36 36 37 37 38 38 39 40 41 42 44 44 45 46 46 47 48 49 50 51 51 50 48 46 45 44 44 44 45 45 45 45 45 46 47 50 51 49 49 50 52 55 56 56 57 58 61 64 66 68 69 70 70
5 6 6 6 4 4 8 14 19 24 29 31 32 32 33 33 35 36 37 40 41 40 39 40 40 38 36 35 35 35 35 35 34 34 34 34 35 36 36 37 37 38 39 40 42 42 43 43 44 45 47 48 49 50 50 49 48 46 45 44 44 44 44 45 46 46 46 46 48 48 51 54 51 49 51 53 56 58 59 60 62 65 67 68 70 71 71 72
5 5 6 6 5 5 8 12 17 22 26 29 30 30 29 29 30 31 33 35 36 34 35 36 35 33 32 33 33 33 34 33 33 33 33 34 34 35 36 36 37 37 38 39 40 40 41 42 44 46 48 49 50 50 49 47 45 44 44 44 44 45 45 45 46 47 48 48 49 49 52 57 54 51 52 55 58 61 62 63 64 67 69 70 71 72 73 73
4 4 5 7 6 7 8 10 13 17 20 22 24 25 26 27 27 29 30 31 31 30 32 33 30 29 31 32 32 32 32 32 32 32 33 33 34 34 35 35 35 36 36 37 37 39 41 43 45 47 48 49 49 47 46 45 44 44 44 44 44 45 45 45 46 48 49 50 51 50 52 58 56 53 54 57 61 63 64 65 66 69 70 71 72 73 74 75
4 4 5 6 7 8 8 8 10 13 15 16 19 21 23 24 26 28 29 30 30 30 30 30 29 30 31 31 31 31 31 31 31 31 31 32 32 32 32 32 33 33 34 36 38 40 42 44 46 47 47 48 46 45 44 44 44 44 44 44 45 45 45 46 46 47 49 50 52 51 53 58 58 56 57 59 62 65 66 67 68 70 71 72 73 74 76 77
6 5 5 6 8 9 10 10 10 12 14 16 18 20 22 24 25 26 28 29 30 29 29 29 30 30 29 29 29 29 29 29 29 29 29 30 29 29 29 30 31 33 35 38 40 42 44 44 45 46 46 46 45 44 44 43 44 44 44 44 45 45 45 46 47 47 49 50 52 52 54 59 60 58 59 60 63 66 68 69 70 71 72 73 75 76 78 80
10 8 7 7 9 11 13 13 14 15 16 17 18 20 22 23 25 26 27 28 29 29 30 30 30 28 27 27 27 26 26 26 27 28 28 28 27 27 28 30 32 35 38 40 42 43 43 44 44 45 45 44 44 44 44 43 44 44 44 44 45 46 46 46 48 49 50 52 54 53 55 60 61 60 61 61 64 67 69 71 72 73 74 75 76 78 80 82
13 12 11 10 10 12 14 15 17 19 19 19 19 20 21 22 24 24 25 26 28 29 29 28 27 25 24 24 24 24 25 27 28 29 29 28 28 29 31 33 35 38 40 41 42 42 43 44 44 44 44 44 45 44 44 44 44 44 44 44 45 47 48 48 49 50 51 53 56 55 56 61 62 62 63 64 66 68 71 72 72 74 75 76 78 80 82 83
14 15 15 15 14 14 15 16 17 18 17 18 18 18 19 20 21 22 24 25 26 27 27 26 24 22 21 22 23 25 27 29 29 28 28 28 29 31 33 36 39 40 41 41 41 42 43 44 44 44 44 45 44 44 44 44 44 44 45 45 46 48 50 50 51 52 52 54 57 57 58 62 63 65 66 67 68 70 71 72 73 75 76 78 80 81 82 82
16 16 17 18 18 18 19 18 17 17 17 16 17 17 18 19 21 23 24 25 24 23 24 24 23 22 22 24 26 28 28 27 26 25 26 28 30 33 36 39 40 40 39 40 41 42 42 42 43 44 44 44 44 44 44 44 44 45 46 47 47 49 51 52 52 53 53 54 57 58 60 64 65 66 68 69 70 71 72 73 74 77 78 80 80 81 81 81
19 18 18 20 21 21 22 21 19 19 19 18 20 20 19 20 22 21 21 24 24 23 23 24 24 23 24 26 28 27 25 24 24 26 28 30 32 35 38 38 37 36 37 38 39 40 41 42 44 44 45 45 45 45 45 45 46 46 47 48 49 50 51 53 54 54 55 55 57 59 61 66 69 68 68 69 70 72 73 74 76 78 79 79 79 79 79 78
21 21 20 21 22 23 24 23 22 23 22 21 23 23 21 21 22 20 21 25 27 26 26 25 25 25 26 28 28 25 24 24 26 28 30 32 34 36 37 36 35 35 36 37 38 40 41 43 44 45 45 45 46 46 47 47 47 48 49 49 51 51 51 53 55 56 57 56 57 59 61 66 71 70 69 70 71 74 75 76 77 78 78 78 78 77 76 76
23 23 22 22 23 24 25 25 25 25 25 25 25 26 24 24 25 25 25 27 27 28 29 28 28 29 29 28 26 25 25 26 28 30 32 34 36 37 37 36 35 36 37 38 39 41 42 44 45 46 46 46 46 47 48 49 50 50 50 51 51 52 52 52 54 57 59 59 59 59 60 65 72 73 71 71 73 75 76 77 77 77 77 77 76 75 75 74
24 24 24 24 24 25 26 27 27 27 27 28 28 28 27 27 28 28 28 27 28 29 30 31 31 31 30 27 26 26 26 28 30 32 34 35 36 37 37 36 36 37 38 39 41 42 44 45 46 47 47 47 47 48 49 50 51 52 52 52 52 53 54 54 55 57 60 62 63 62 60 63 71 75 73 72 74 75 76 76 76 75 75 76 75 74 73 71
25 25 25 25 26 26 26 28 29 29 30 30 30 30 30 31 32 32 31 31 30 30 31 33 33 31 27 26 26 27 29 31 32 34 35 35 37 38 37 37 38 38 39 41 42 43 45 46 47 47 48 48 49 50 50 51 52 53 54 54 54 55 56 57 57 58 60 63 65 65 62 61 70 77 75 74 75 75 75 74 74 74 74 75 75 73 71 66
26 27 27 26 27 28 28 29 31 31 31 31 32 31 31 31 32 34 35 34 33 32 33 33 32 28 26 27 28 29 31 33 34 35 35 36 38 38 38 38 39 39 41 42 43 44 46 47 48 48 49 50 50 51 52 52 53 54 55 56 56 57 58 58 59 60 61 63 65 67 67 64 69 76 76 75 75 74 73 73 73 74 74 74 73 70 64 55
28 29 29 28 29 29 29 30 31 31 32 32 32 32 32 31 31 33 34 34 34 34 32 30 28 26 27 29 30 31 34 34 35 35 36 38 39 39 39 39 40 41 42 43 44 46 47 48 49 49 50 50 51 52 53 54 54 55 56 57 57 58 59 60 60 62 62 64 66 68 70 69 71 76 75 73 74 73 72 73 72 72 73 72 69 63 54 47
30 31 30 30 30 30 30 29 30 31 32 33 33 34 32 29 29 30 29 30 31 29 26 25 26 28 29 30 32 33 35 34 35 36 38 39 39 39 40 40 41 42 43 44 46 47 48 49 50 50 51 51 52 53 54 55 55 56 57 58 58 59 60 60 61 62 63 65 67 68 71 70 72 78 76 72 72 71 71 72 71 71 72 67 60 54 48 46
32 32 31 31 30 30 29 28 29 30 32 33 34 34 33 30 28 28 28 28 26 23 22 25 28 30 31 32 34 34 34 35 36 38 38 38 39 40 41 41 42 43 44 45 46 48 49 50 51 51 51 52 53 54 55 56 56 57 58 58 59 59 60 61 62 63 64 65 67 68 70 70 71 78 79 74 71 68 68 69 70 70 66 57 50 48 48 49
32 31 30 29 28 27 27 27 28 30 32 33 32 32 32 31 30 29 29 26 23 22 25 29 31 33 34 34 34 34 35 37 38 38 38 39 40 41 42 42 43 44 45 47 48 49 50 51 51 52 52 53 54 55 56 57 58 59 59 59 59 60 61 61 63 64 64 64 65 66 68 70 73 79 80 74 70 66 66 68 69 65 56 49 46 47 49 52
28 28 27 26 26 26 26 26 27 29 31 31 30 29 28 28 28 28 26 23 23 26 29 32 34 35 34 34 34 35 37 39 39 39 39 40 42 42 43 44 45 46 47 48 49 50 51 52 52 53 53 54 55 56 57 58 59 60 60 60 60 61 61 61 62 63 63 63 63 64 66 69 75 82 80 74 69 65 65 66 62 55 48 46 48 50 52 54
22 23 23 24 24 25 25 26 27 28 29 29 27 25 24 25 27 26 23 23 26 29 31 32 32 32 32 34 36 37 38 39 39 39 40 42 43 44 45 45 46 47 47 49 50 50 52 53 54 54 54 55 56 57 58 59 60 61 62 62 62 62 61 60 61 61 61 61 60 62 65 68 76 83 80 73 67 63 63 60 52 47 46 48 51 53 55 57
18 19 21 22 23 24 24 25 26 26 26 26 24 24 25 26 24 22 21 22 26 28 29 30 30 32 34 36 38 38 38 38 39 40 41 43 44 45 46 47 48 49 49 50 51 51 51 53 54 54 55 57 57 58 59 59 60 62 63 63 64 64 63 61 59 59 58 58 59 61 64 68 76 82 79 70 64 61 58 51 45 45 48 51 53 56 57 58
15 17 18 19 20 21 22 23 23 23 23 24 23 23 23 21 19 20 24 26 28 29 30 31 32 34 36 38 39 37 36 37 40 41 43 44 45 46 48 49 50 51 52 52 52 51 51 52 53 54 56 58 59 59 60 60 61 62 63 64 64 66 66 64 61 59 57 55 57 60 63 68 76 80 76 67 61 57 51 44 44 48 52 54 56 58 59 60
13 15 16 18 18 19 20 21 20 21 21 21 20 18 17 17 20 24 28 31 33 33 33 33 34 36 38 38 37 36 36 38 41 43 44 46 46 48 50 51 52 53 54 55 54 52 51 51 53 54 56 58 59 60 61 62 62 62 63 64 65 66 66 65 63 62 60 55 55 59 61 67 74 75 71 63 56 52 48 45 49 52 55 57 59 60 61 63
12 14 16 17 18 19 20 20 20 20 19 17 16 16 18 21 24 27 30 33 34 35 34 35 36 37 37 36 36 37 38 40 42 44 46 47 48 49 51 51 53 55 56 56 55 53 51 51 53 55 57 59 60 61 62 64 64 63 64 65 66 66 66 66 63 61 60 56 55 57 56 62 69 66 61 57 52 50 49 51 54 57 60 61 63 63 64 66
12 14 16 17 18 20 20 20 19 18 17 17 18 20 23 24 26 29 31 33 34 34 35 36 36 36 36 37 38 40 41 43 45 46 47 48 49 50 51 53 54 56 58 57 56 55 53 52 53 56 58 60 61 61 63 65 65 65 66 66 67 66 65 65 62 59 59 56 55 53 50 56 61 54 50 50 50 51 53 55 59 62 65 66 67 68 68 70
13 14 15 17 19 21 22 21 19 19 20 20 22 24 26 27 29 30 31 32 32 34 35 35 36 37 37 39 41 43 44 46 47 47 47 48 50 52 53 54 56 58 59 58 56 55 54 52 53 56 59 60 61 62 63 65 66 67 68 68 69 67 64 62 60 60 59 56 53 45 41 51 54 47 45 47 49 52 54 57 61 65 68 70 70 71 72 74
13 13 15 17 20 22 22 20 18 18 20 22 23 26 27 28 28 28 29 31 33 34 35 35 36 38 40 42 43 45 46 47 47 48 48 49 51 53 54 55 57 58 58 58 57 56 55 54 53 55 59 61 62 63 65 66 67 67 68 69 68 66 63 60 59 61 60 55 48 36 34 49 53 47 48 51 52 55 56 58 62 66 69 72 72 72 74 76
13 13 15 18 20 21 21 19 17 17 19 21 23 25 25 26 27 29 31 32 34 35 36 37 38 40 43 44 45 46 46 47 48 48 49 51 52 53 55 57 58 58 58 58 57 56 56 55 54 55 59 62 63 65 66 67 67 67 67 67 66 64 61 58 57 58 56 50 44 34 34 51 57 52 54 56 57 60 61 61 64 68 71 73 75 76 77 79
14 14 16 19 19 20 21 21 21 21 22 23 23 24 25 27 29 31 32 34 35 36 37 39 41 43 44 46 46 46 45 46 48 49 50 52 54 55 56 58 58 58 57 56 56 56 56 55 55 57 60 62 64 66 67 67 66 65 65 64 63 62 61 58 53 51 49 46 45 40 39 52 61 59 59 60 61 64 65 66 68 71 75 77 78 80 82 83
14 14 17 19 19 22 24 25 26 26 25 25 25 26 28 30 31 33 34 35 37 39 40 42 43 44 45 45 45 45 45 45 47 50 51 54 56 57 57 58 58 57 56 55 56 57 57 56 56 58 60 62 65 66 66 64 63 63 64 63 62 61 58 54 47 44 44 46 48 46 43 51 61 62 62 63 65 67 69 71 72 75 78 81 82 84 86 88
13 14 17 20 21 24 26 27 28 28 27 27 26 28 30 32 34 35 37 38 40 41 42 43 43 43 43 43 44 45 46 46 47 51 53 55 56 58 58 58 58 57 56 55 56 57 58 58 58 58 59 61 64 64 63 62 62 63 64 62 59 56 51 48 46 45 46 49 52 50 47 52 61 63 63 66 68 70 73 76 78 80 82 84 85 87 89 91
15 17 19 21 22 24 25 25 25 25 26 26 27 29 31 33 36 37 39 40 41 42 42 42 42 42 43 43 44 45 46 47 49 52 55 56 57 58 58 58 57 56 55 55 56 57 58 60 60 58 55 54 56 59 60 60 61 62 61 57 52 49 47 48 49 50 49 51 56 56 51 54 63 66 66 69 71 73 76 80 83 85 87 88 88 89 92 93
19 20 21 21 22 24 24 24 25 25 26 27 28 30 31 34 36 38 39 40 40 40 40 41 42 42 43 44 45 46 48 50 52 54 56 57 57 58 58 57 56 55 56 56 57 57 58 60 60 57 54 53 53 54 54 55 55 54 51 48 46 47 50 52 53 53 52 52 57 61 57 56 64 68 69 72 75 76 79 81 85 88 91 92 92 93 94 96
21 24 25 24 25 26 27 28 28 29 30 30 30 31 33 35 37 37 38 39 39 39 40 41 42 43 44 45 46 49 51 53 55 56 57 57 57 57 57 56 56 56 56 57 57 57 56 56 56 55 56 58 57 55 52 48 46 44 43 44 47 50 52 55 56 56 56 55 58 65 65 62 66 70 72 75 78 80 82 84 87 90 92 94 95 96 98 99
23 26 27 26 27 28 29 29 30 31 32 33 34 34 36 37 38 38 38 38 39 40 41 42 44 45 46 47 48 51 54 56 57 57 57 57 57 56 55 55 55 56 57 57 56 55 51 51 53 54 57 59 57 54 49 44 41 41 43 46 50 52 54 57 60 61 61 61 61 65 70 71 72 74 77 80 83 84 86 88 90 92 94 96 98 99 101 103
24 26 27 26 27 28 29 30 31 32 34 35 36 37 38 39 39 39 39 39 39 41 42 43 45 46 47 49 51 54 56 57 57 57 57 57 56 55 55 55 56 56 56 55 53 51 48 49 52 54 58 58 53 47 45 43 43 45 47 49 53 55 58 61 64 66 67 68 67 68 73 77 79 80 82 85 88 90 91 93 94 96 98 100 101 103 105 108
25 26 26 26 27 28 29 30 32 33 35 36 37 38 39 39 39 39 40 40 41 42 43 44 46 48 49 52 54 55 56 56 56 57 57 56 55 55 54 55 56 55 54 51 50 49 48 49 51 52 55 53 47 44 44 45 47 49 51 54 57 59 62 64 68 72 73 73 74 75 77 80 84 85 86 89 93 95 96 97 98 100 103 105 107 109 111 112
26 26 26 26 27 28 29 30 32 33 35 36 37 38 38 38 38 39 39 40 42 43 45 46 48 50 52 54 55 55 55 55 55 55 54 54 54 54 54 54 54 52 50 48 48 49 49 48 47 46 48 47 45 46 48 48 50 53 55 58 61 62 65 68 72 76 77 77 79 81 82 84 86 88 90 92 95 98 101 102 103 105 107 110 112 114 116 118
25 25 25 26 27 29 29 30 31 32 33 34 34 35 36 36 37 38 40 41 43 44 46 48 50 52 53 54 54 54 54 54 53 53 52 52 53 53 53 51 49 48 48 47 47 47 46 43 41 40 42 46 47 49 52 53 53 55 58 61 64 65 68 71 76 80 81 80 81 84 86 88 89 91 91 92 95 99 104 107 109 111 112 114 116 119 121 123
22 23 24 24 26 27 27 28 29 29 31 31 32 33 34 36 37 39 41 43 44 46 48 50 52 53 53 53 53 52 52 51 51 51 52 52 52 51 50 48 47 46 46 45 44 42 40 38 37 39 42 47 49 51 55 56 56 58 61 64 67 69 70 73 78 84 86 86 87 89 90 92 93 94 94 93 95 99 105 111 114 116 118 120 122 124 126 126
Wind_Direction
230 229 227 227 226 225 224 222 221 220 221 222 224 226 228 230 232 234 236 237 239 241 243 245 247 248 249 251 252 254 256 258 260 263 265 267 269 271 273 274 276 277 279 280 282 283 285 287 288 290 291 292 293 295 296 297 297 298 299 299 299 300 301 301 301 301 301 301 300 299 298 297 297 296 296 296 295 294 295 298 300 302 304 305 306 306 307 307
230 230 230 229 228 227 227 225 223 222 222 223 225 227 229 231 233 235 236 238 240 242 244 246 248 250 251 253 254 256 258 260 262 264 267 269 271 272 274 276 277 279 280 281 282 284 285 287 289 290 292 293 294 295 296 296 297 297 298 299 300 301 301 302 302 302 302 301 300 299 298 297 296 296 295 295 295 296 299 301 303 305 305 306 307 307 308 308
232 231 231 230 229 228 228 227 226 224 223 224 226 228 230 232 233 235 237 238 239 242 244 247 249 250 252 254 256 258 259 261 263 266 268 270 272 273 275 277 278 280 281 282 283 285 286 288 289 291 292 293 294 295 296 296 297 297 298 300 301 302 303 303 303 302 301 300 299 298 298 297 296 295 295 296 297 299 302 303 305 306 307 307 308 308 308 308
242 239 236 233 230 229 228 228 226 226 225 225 226 228 230 232 234 236 238 240 241 242 244 246 249 250 253 255 257 259 261 263 265 267 269 271 273 274 276 277 279 281 282 284 285 286 288 289 290 291 292 293 294 295 295 296 297 299 300 302 303 304 305 304 303 301 300 299 299 298 297 296 296 296 297 298 300 302 303 305 306 307 308 308 308 309 309 309
255 251 245 239 233 230 229 228 226 225 225 225 226 228 230 232 234 236 238 240 242 244 245 247 249 251 253 256 258 260 262 264 266 268 270 272 273 275 277 279 281 283 284 285 287 288 289 290 290 291 292 293 294 295 296 298 299 301 303 305 306 306 305 303 302 301 300 298 297 296 296 296 297 298 299 301 302 303 304 306 307 308 308 308 308 309 309 308
265 259 252 243 235 230 228 227 225 223 223 224 225 227 229 231 233 235 237 239 241 244 246 248 250 252 254 256 258 261 262 264 266 268 270 272 275 277 279 281 282 284 285 286 287 289 290 291 292 293 294 295 296 297 299 300 302 304 306 307 307 306 304 302 301 300 298 297 296 295 296 298 300 300 301 302 303 303 305 306 307 308 308 308 308 308 308 308
270 260 252 244 236 230 226 224 223 221 220 222 224 226 228 230 232 234 236 238 240 244 246 249 251 253 254 256 259 261 263 265 267 269 271 274 276 278 279 281 282 283 285 286 288 289 291 292 293 294 296 297 298 299 301 303 305 306 307 307 306 304 303 302 301 299 298 296 296 296 297 298 300 301 301 303 304 304 305 306 308 308 307 307 307 307 307 307
269 254 249 243 234 228 223 220 218 217 216 218 221 225 227 229 232 235 237 239 241 244 246 248 251 253 255 257 260 262 264 266 268 270 273 275 276 278 279 280 281 283 284 286 288 290 291 293 294 295 297 298 300 301 303 304 305 306 306 305 304 303 302 301 300 299 298 297 297 297 298 298 300 302 303 304 305 305 305 306 308 307 307 306 306 306 306 307
266 252 254 243 231 226 220 216 214 213 213 214 218 223 226 228 231 234 237 239 240 242 245 248 250 253 255 258 260 263 265 267 269 271 273 274 276 277 279 280 282 283 285 287 289 291 293 294 296 297 299 300 302 303 304 305 305 306 306 305 304 303 302 301 299 298 298 298 299 299 299 299 300 302 304 305 305 305 305 307 307 307 306 305 305 305 305 306
270 255 259 248 228 221 215 210 210 210 210 212 216 221 224 227 229 232 235 237 240 241 243 247 250 252 254 257 260 263 266 268 270 271 273 274 275 277 278 280 283 285 288 290 292 293 295 296 298 299 301 301 302 303 304 305 306 306 306 305 304 303 302 300 299 298 298 298 299 300 300 300 300 304 306 307 306 305 306 307 307 307 306 305 305 305 305 306
286 261 260 249 223 204 203 201 204 205 206 210 215 219 222 225 227 230 232 235 239 241 243 247 250 253 255 258 261 264 267 269 271 272 273 274 275 277 280 282 285 288 290 292 294 296 297 298 299 300 301 302 303 304 305 306 306 306 305 304 303 302 301 300 299 299 299 299 299 300 301 300 301 305 307 307 306 306 306 307 307 307 306 306 306 305 306 306
302 269 261 246 219 208 198 195 199 199 203 209 214 218 220 224 227 229 230 234 240 243 245 248 251 255 258 260 263 266 268 270 271 272 273 275 277 280 282 285 288 290 292 294 296 297 298 298 299 300 301 303 304 305 306 306 305 305 304 303 302 302 302 301 301 301 300 300 299 301 304 303 304 306 307 306 306 305 306 307 308 307 306 306 306 306 306 307
319 288 273 251 220 215 206 197 196 199 205 209 213 217 220 223 226 229 231 236 242 244 246 250 253 257 259 262 265 267 269 270 272 274 275 277 280 282 285 288 290 292 293 294 295 296 297 298 300 301 302 304 305 305 305 305 304 303 303 303 302 302 302 302 302 302 301 302 302 305 307 305 305 306 305 305 305 305 306 307 308 307 307 307 307 307 308 308
321 306 287 266 237 217 208 201 199 206 213 212 214 219 222 224 226 228 232 236 241 243 247 253 258 261 262 265 267 269 271 273 275 277 279 281 283 286 288 290 291 293 293 294 295 296 297 299 301 302 303 304 305 305 304 304 303 303 303 302 302 302 302 302 302 303 304 306 306 307 307 304 304 305 305 305 305 306 306 307 307 307 307 308 308 309 309 309
299 303 293 280 260 236 217 207 205 210 215 213 214 219 223 227 230 232 235 238 241 245 251 256 260 264 266 268 270 272 274 276 279 281 283 286 288 290 292 293 293 293 293 294 295 296 298 300 302 303 304 304 304 303 303 303 303 303 302 302 301 301 301 302 302 304 305 305 304 305 305 302 303 304 304 305 306 307 307 307 307 308 308 309 309 310 310 310
278 281 283 277 266 255 243 234 226 218 216 215 214 217 222 227 230 234 238 242 245 248 252 256 260 265 269 271 273 276 278 281 283 287 290 293 294 295 295 294 294 294 294 295 296 298 299 300 302 303 304 304 303 303 303 303 302 302 301 301 301 301 302 302 302 302 302 302 302 303 304 302 302 304 304 305 306 306 307 308 308 309 309 310 311 311 311 311
275 270 265 261 259 256 252 250 246 238 231 226 224 222 223 227 230 234 239 244 248 250 253 256 261 266 270 273 277 280 283 287 291 295 298 299 297 294 293 292 292 293 295 296 297 298 299 301 302 303 304 304 303 303 303 302 302 301 302 302 302 302 302 301 301 301 301 301 302 303 304 303 303 304 305 306 306 307 308 308 309 310 310 311 311 312 312 312
273 269 262 255 251 251 252 252 250 245 236 232 232 228 227 230 233 236 241 246 250 253 256 260 263 267 271 275 280 284 288 292 297 299 299 295 292 290 290 291 293 295 296 297 297 298 300 301 303 304 304 304 304 303 302 302 302 302 302 302 302 302 301 300 300 300 301 302 302 303 304 303 305 306 306 307 307 308 308 309 310 310 311 312 312 312 312 312
268 266 262 257 252 250 251 251 252 251 242 235 234 234 234 235 238 243 247 250 254 257 258 258 261 265 270 277 281 286 293 297 298 296 292 289 289 290 292 295 297 298 298 298 298 299 301 303 304 305 304 304 303 302 302 301 302 302 302 301 301 301 301 300 301 301 302 303 304 305 306 305 306 307 307 308 308 308 309 309 310 311 312 312 313 312 312 312
265 262 259 257 254 253 253 254 257 260 255 248 245 247 247 248 252 252 253 255 254 255 258 259 263 269 273 279 285 292 296 295 291 289 287 288 291 294 297 300 301 300 299 298 299 301 303 304 305 305 304 303 302 301 301 300 301 301 300 300 300 300 301 302 303 303 303 305 306 307 308 307 306 307 307 308 309 309 309 310 311 312 312 313 312 312 312 312
266 263 258 255 253 253 255 257 259 259 258 253 249 250 251 253 258 255 256 261 259 262 269 270 272 275 279 286 292 295 291 284 283 285 288 290 293 298 302 303 302 301 300 301 302 303 305 305 305 305 304 303 301 300 299 300 300 300 300 301 301 302 302 303 304 304 305 306 307 308 309 308 307 307 307 308 309 309 309 311 312 312 312 312 312 312 311 312
266 265 262 256 252 251 254 256 257 257 258 255 252 253 250 250 253 249 245 252 260 270 276 276 275 278 284 290 291 287 280 280 284 287 290 293 297 302 305 305 304 304 304 304 305 306 306 306 306 305 304 302 301 299 299 299 300 300 301 301 302 302 303 304 305 306 306 307 307 308 309 307 306 306 307 308 309 310 310 311 312 312 312 312 311 311 311 312
267 266 264 259 253 250 251 252 253 253 255 255 253 253 253 252 252 250 245 248 258 267 271 274 275 280 286 288 282 277 279 284 287 290 293 297 301 306 307 306 306 307 307 307 307 308 307 307 306 305 304 302 301 300 300 300 300 300 301 301 302 302 303 304 305 306 307 307 307 307 308 307 306 306 308 309 310 310 311 311 312 312 312 311 311 311 312 314
267 265 263 260 255 251 250 251 252 252 252 252 251 251 253 254 254 257 257 258 260 263 267 270 273 280 285 280 272 274 281 285 288 292 297 301 305 308 308 307 308 309 309 310 310 309 309 308 307 306 304 303 301 300 300 300 300 300 301 301 302 302 303 304 305 306 306 307 306 306 307 308 306 306 308 309 309 309 310 311 312 312 311 311 310 311 313 315
268 265 262 258 256 253 251 250 251 250 249 248 247 248 250 252 255 259 261 261 260 261 263 267 272 278 276 270 270 277 282 286 290 295 300 304 307 308 308 308 309 311 311 312 311 311 310 309 308 307 305 304 302 301 300 300 301 301 302 302 302 303 304 305 305 305 305 305 306 306 308 309 307 306 308 309 309 310 311 311 312 312 311 310 310 313 315 317
268 265 261 257 255 253 252 250 250 249 247 245 243 244 246 248 252 255 255 256 256 257 260 266 270 270 265 266 273 279 283 287 293 298 301 304 307 308 308 309 311 312 313 313 313 312 311 310 310 308 306 304 303 302 301 301 302 302 302 302 303 304 304 304 305 305 305 305 306 308 309 310 308 306 308 310 309 310 311 311 312 311 310 310 312 315 316 317
267 264 261 258 255 253 252 250 249 247 244 242 240 240 242 244 247 248 249 251 251 254 258 262 263 261 264 270 275 280 285 290 295 299 302 304 305 307 308 310 312 313 314 314 313 313 312 311 310 308 306 305 303 303 302 302 302 302 302 303 304 304 304 305 305 305 306 307 308 309 310 311 310 307 308 309 308 310 310 311 312 310 309 312 314 315 317 318
267 264 262 259 256 254 251 249 246 244 241 238 236 236 237 240 243 244 246 249 249 251 253 254 256 261 267 273 278 283 287 292 298 300 301 303 305 306 308 310 312 314 314 315 314 313 312 311 310 308 307 305 304 304 303 303 303 303 304 304 304 305 305 305 306 306 307 308 309 310 311 312 311 308 307 307 307 309 311 311 311 309 311 314 315 315 317 318
266 264 262 259 256 253 250 245 242 239 237 235 234 234 234 232 236 242 245 246 245 250 257 259 260 264 269 274 280 286 290 295 298 299 300 302 304 305 307 309 311 313 315 315 315 314 312 311 310 309 307 307 306 305 305 305 305 305 305 305 305 305 305 306 306 307 308 309 311 312 312 312 310 307 305 305 307 309 312 311 309 310 313 315 313 314 316 316
266 263 259 256 253 249 245 240 237 234 233 233 232 234 234 231 232 239 243 246 254 263 266 264 262 265 271 276 282 287 290 294 297 297 299 301 302 304 306 308 311 313 315 316 315 314 313 311 310 309 308 307 307 306 306 306 306 305 305 305 305 305 305 306 307 308 309 311 312 313 312 311 310 305 303 304 308 312 312 310 310 313 315 313 312 314 314 315
261 257 253 249 245 242 239 235 232 229 229 230 231 232 235 235 236 242 244 249 259 261 259 260 263 268 274 279 283 286 290 294 295 296 298 300 302 303 305 308 311 313 315 315 315 315 313 311 310 309 309 308 307 307 307 306 306 305 305 305 305 305 306 307 307 308 310 312 313 313 312 312 309 305 303 305 311 314 312 310 313 314 312 311 312 313 313 314
255 249 244 240 237 235 233 230 227 225 225 227 228 227 230 235 242 249 250 246 247 250 255 262 268 273 277 280 283 287 291 293 293 294 298 301 302 303 304 307 310 313 315 315 315 315 313 311 310 310 309 308 308 307 307 307 306 306 306 306 306 306 306 307 308 309 311 313 313 313 312 312 308 304 303 308 313 314 311 312 315 312 309 311 312 312 313 315
249 242 237 234 232 230 229 226 224 224 223 223 222 222 227 233 241 254 259 254 252 255 261 267 271 274 278 281 285 288 290 291 292 295 299 301 301 302 303 307 310 312 314 314 314 314 312 311 310 310 309 308 308 307 307 307 306 306 307 307 308 308 308 309 310 311 312 313 314 313 312 311 307 303 304 310 314 313 312 316 314 309 309 310 310 312 313 314
246 238 232 229 227 226 225 224 223 222 219 217 218 222 230 237 246 257 261 261 262 265 269 272 272 275 279 283 286 288 290 293 294 297 300 301 301 301 303 307 310 312 313 314 313 312 312 310 309 309 309 308 308 308 307 307 307 308 308 309 310 309 310 311 312 313 314 315 316 315 313 310 305 302 305 312 315 314 315 316 311 308 309 309 310 312 314 314
243 232 225 220 217 216 217 217 217 216 213 214 221 230 242 251 254 254 253 255 260 265 271 275 276 278 281 283 285 288 292 295 297 298 300 301 301 301 303 307 309 311 313 313 312 311 311 310 309 309 309 308 308 308 309 309 309 310 310 310 310 310 310 311 313 315 316 318 318 314 312 309 303 303 308 314 316 315 316 314 310 308 309 310 312 313 314 314
236 226 218 212 210 208 209 210 209 209 210 217 231 243 249 248 247 246 247 252 258 264 271 276 277 278 280 282 286 290 294 296 298 299 300 301 301 302 304 306 309 311 312 312 312 311 311 310 310 309 309 309 309 310 310 310 310 311 311 310 310 310 311 312 315 318 317 319 317 313 312 306 300 303 310 314 316 316 315 313 311 311 311 313 314 314 315 315
230 224 216 211 208 204 201 200 202 208 216 226 235 241 242 242 243 245 249 254 261 266 271 275 276 276 279 283 288 291 295 297 297 298 299 300 302 303 305 307 309 310 311 312 311 310 311 311 311 311 310 310 311 312 312 311 311 311 311 310 309 310 312 314 318 319 317 317 315 315 314 303 299 306 313 314 316 316 316 315 314 314 314 314 315 315 316 315
225 224 220 212 205 200 197 197 202 211 220 227 232 235 239 243 246 250 254 260 265 268 271 272 274 276 280 284 288 292 295 296 296 297 298 300 302 304 307 308 309 310 311 311 311 310 310 312 313 312 311 311 312 312 311 310 311 311 311 310 310 312 315 318 320 318 315 316 317 321 317 301 301 312 314 313 316 315 315 315 314 314 313 313 315 315 315 315
223 221 221 213 203 202 203 204 209 216 224 230 234 239 243 247 250 255 259 263 266 267 269 270 274 278 282 285 289 293 295 296 296 297 299 301 303 306 308 309 309 310 311 311 310 310 311 313 314 312 311 311 312 311 310 310 310 310 310 310 311 314 317 320 320 317 315 318 322 330 320 303 307 316 315 315 317 315 314 314 313 313 312 312 314 314 314 314
221 215 215 214 209 208 211 214 219 225 231 236 240 243 248 251 255 259 260 262 263 265 268 271 275 280 284 288 291 294 295 296 297 299 300 302 305 307 309 309 310 310 310 310 309 310 311 313 314 313 311 312 311 310 309 309 309 310 311 311 312 315 318 320 319 316 317 321 324 333 323 308 311 318 317 318 318 316 316 315 314 314 312 312 313 314 314 314
220 209 209 215 215 213 215 220 228 234 237 241 246 249 252 254 255 256 257 259 262 266 271 276 279 283 287 291 293 294 294 296 299 301 302 304 307 308 309 309 309 310 309 309 309 310 311 313 314 313 311 311 311 309 309 309 310 312 312 311 313 317 319 319 319 318 321 322 323 329 325 313 313 317 319 319 318 317 317 316 315 314 313 313 314 314 314 314
216 207 207 213 215 216 220 224 230 236 240 244 248 250 252 253 254 255 258 261 266 271 276 280 284 287 290 292 293 294 295 298 301 303 304 306 307 308 309 309 309 309 309 309 309 310 311 312 312 312 311 311 310 309 309 310 312 312 311 312 316 319 319 318 320 323 323 322 321 325 325 317 314 317 319 319 318 317 317 316 315 315 314 314 315 315 314 314
215 211 210 211 214 220 226 229 233 239 244 249 252 253 254 256 257 260 264 268 273 276 280 284 287 290 291 292 294 295 297 300 302 304 305 307 307 308 308 309 309 309 309 309 310 310 311 311 311 311 311 311 310 310 310 312 312 311 312 316 319 319 318 318 321 324 324 322 320 322 324 320 315 316 318 318 317 317 316 316 316 315 314 314 314 314 314 314
219 220 218 216 221 228 234 237 240 245 250 255 260 261 261 262 263 266 270 273 275 279 283 286 288 290 293 294 295 296 299 302 304 305 306 306 307 307 308 309 309 309 309 309 310 310 311 311 310 311 311 310 308 307 309 310 311 311 314 318 320 318 318 320 321 322 323 323 320 320 323 321 316 315 317 317 317 317 317 316 315 314 313 313 314 314 313 313
223 228 230 229 231 236 240 243 245 249 255 260 263 264 266 267 269 271 273 275 278 281 284 287 289 292 295 295 297 299 302 304 305 306 306 306 307 308 309 309 308 308 308 309 310 310 311 311 311 312 312 309 304 303 306 309 311 313 317 320 319 318 319 320 320 321 322 323 320 318 320 320 316 315 317 316 316 316 316 315 314 313 313 313 314 313 312 312
227 232 239 239 237 237 240 244 247 250 254 259 263 266 269 273 275 275 277 279 282 284 286 287 290 294 295 297 299 302 304 305 306 306 306 307 308 308 308 308 307 308 308 309 310 311 313 313 312 313 312 308 306 308 313 315 315 317 321 321 319 318 319 319 319 319 320 321 320 317 317 318 316 316 316 315 315 315 314 314 313 313 312 312 312 312 311 311
233 237 244 245 241 239 241 246 249 251 254 258 263 267 272 275 277 278 279 282 285 286 287 288 291 294 296 299 301 303 304 305 306 306 307 308 308 308 308 307 307 307 308 309 311 312 314 314 312 311 309 306 309 314 317 319 319 322 323 321 319 319 320 319 318 318 319 319 319 318 317 317 317 316 316 315 314 314 314 313 313 312 311 311 311 311 311 312
241 244 248 249 246 244 246 249 252 253 256 259 264 268 272 275 277 279 282 285 287 287 288 290 292 296 299 301 302 304 304 305 306 307 307 308 307 307 307 307 307 308 309 311 313 314 314 312 310 309 307 308 314 318 319 320 322 323 322 320 319 319 320 320 319 318 318 319 319 319 318 317 317 317 316 315 315 314 314 313 313 312 311 311 312 312 312 313
247 250 252 253 252 251 253 254 256 258 260 264 267 270 272 275 278 281 284 286 288 289 291 293 296 299 301 302 303 304 305 305 306 307 307 307 306 306 306 306 307 310 311 313 314 313 312 310 308 309 309 311 317 319 319 321 322 322 322 321 320 320 320 320 319 318 318 319 320 319 318 317 316 316 316 315 315 314 314 313 313 312 312 312 313 313 314 314
251 254 256 258 259 260 262 264 265 266 268 270 271 273 275 277 280 284 286 288 290 292 294 297 299 301 302 303 303 304 305 306 306 306 305 305 305 305 306 307 310 312 313 314 313 311 310 309 310 312 312 314 319 320 319 321 322 322 322 321 320 320 320 320 319 318 318 319 319 318 317 316 315 315 315 315 315 314 314 314 314 313 313 313 314 314 315 315
255 258 262 264 265 267 269 270 271 272 273 274 275 276 279 282 285 287 289 291 292 294 297 299 300 301 302 303 304 305 306 306 305 304 303 303 304 306 307 310 312 313 313 312 310 309 310 311 314 316 316 317 320 320 319 320 322 322 321 319 319 320 321 321 319 317 316 317 317 316 315 315 314 314 315 315 315 315 315 314 314 313 313 314 315 315 315 314
259 262 265 267 268 270 272 273 274 275 276 278 280 282 285 287 289 291 292 294 296 298 299 300 301 302 303 304 305 305 305 304 303 302 303 305 306 308 310 312 312 311 311 310 309 309 311 314 317 319 319 318 319 319 319 319 321 321 320 318 319 321 321 320 318 316 315 316 315 315 315 315 314 314 315 315 315 315 314 314 313 314 315 315 315 314 313 313
Height
10728 10729 10730 10731 10732 10733 10735 10738 10740 10743 10744 10746 10747 10749 10750 10752 10753 10755 10756 10759 10761 10763 10764 10765 10766 10768 10769 10770 10771 10772 10772 10773 10773 10773 10774 10773 10773 10773 10772 10772 10771 10771 10770 10770 10769 10768 10767 10766 10765 10764 10762 10761 10759 10758 10756 10755 10753 10751 10749 10747 10745 10743 10740 10738 10735 10732 10729 10727 10725 10722 10720 10718 10715 10713 10711 10708 10706 10703 10701 10698 10695 10692 10690 10687 10684 10681 10678 10675
10725 10726 10727 10728 10729 10731 10732 10735 10737 10740 10741 10743 10745 10746 10748 10750 10751 10753 10755 10757 10759 10760 10762 10763 10764 10765 10766 10768 10769 10769 10770 10771 10771 10771 10771 10770 10770 10770 10769 10769 10768 10767 10767 10766 10766 10765 10764 10763 10762 10760 10759 10757 10755 10754 10752 10751 10749 10748 10745 10743 10741 10738 10736 10733 10730 10727 10724 10722 10719 10717 10715 10713 10710 10708 10706 10704 10701 10698 10696 10693 10690 10687 10685 10682 10679 10676 10673 10669
10723 10723 10724 10725 10726 10727 10729 10731 10734 10736 10739 10741 10743 10744 10746 10748 10749 10751 10753 10755 10757 10758 10760 10761 10761 10763 10764 10765 10766 10767 10768 10768 10769 10769 10768 10768 10767 10767 10766 10765 10765 10764 10763 10763 10762 10762 10761 10759 10758 10757 10755 10753 10752 10750 10749 10747 10746 10744 10741 10739 10736 10734 10731 10728 10725 10722 10719 10717 10714 10712 10710 10708 10705 10703 10701 10699 10696 10693 10691 10688 10685 10682 10679 10676 10673 10670 10667 10664
10720 10720 10721 10721 10722 10724 10725 10727 10729 10733 10736 10738 10740 10742 10744 10745 10748 10749 10751 10754 10755 10756 10758 10758 10759 10761 10762 10763 10764 10765 10765 10766 10766 10766 10765 10765 10764 10764 10763 10762 10761 10760 10759 10759 10758 10757 10756 10755 10754 10753 10751 10750 10748 10746 10745 10743 10741 10739 10736 10734 10731 10728 10726 10723 10720 10718 10715 10712 10710 10707 10705 10703 10701 10698 10696 10694 10691 10689 10686 10683 10680 10677 10674 10671 10668 10664 10661 10658
10718 10717 10717 10718 10719 10720 10722 10723 10726 10729 10732 10734 10737 10739 10741 10743 10745 10747 10749 10751 10753 10754 10756 10756 10757 10759 10760 10761 10762 10762 10763 10764 10763 10763 10763 10762 10761 10761 10760 10759 10758 10756 10755 10755 10754 10753 10752 10751 10750 10749 10748 10746 10744 10742 10740 10738 10736 10734 10731 10728 10726 10723 10721 10718 10715 10713 10711 10708 10706 10703 10700 10698 10695 10693 10691 10689 10686 10684 10681 10678 10675 10672 10669 10666 10662 10659 10655 10652
10715 10714 10714 10714 10715 10717 10718 10720 10722 10725 10728 10730 10733 10736 10738 10740 10742 10744 10746 10748 10750 10752 10753 10754 10755 10757 10758 10758 10759 10760 10760 10761 10761 10760 10760 10759 10758 10757 10756 10755 10754 10753 10752 10751 10750 10749 10748 10747 10745 10744 10743 10741 10739 10737 10735 10733 10731 10729 10726 10724 10721 10718 10716 10713 10711 10708 10706 10704 10701 10699 10696 10693 10691 10688 10686 10684 10681 10679 10676 10673 10670 10667 10664 10660 10656 10653 10649 10646
10713 10711 10711 10711 10712 10713 10714 10716 10719 10722 10725 10728 10731 10733 10735 10737 10739 10742 10743 10746 10748 10749 10751 10752 10753 10754 10755 10756 10757 10757 10758 10758 10758 10758 10757 10756 10756 10754 10753 10752 10751 10750 10749 10747 10746 10745 10744 10743 10741 10740 10738 10737 10735 10733 10730 10728 10726 10724 10722 10719 10717 10714 10711 10709 10706 10704 10701 10699 10697 10694 10692 10689 10687 10683 10681 10679 10676 10673 10671 10668 10665 10661 10658 10655 10651 10647 10643 10640
10711 10710 10709 10709 10709 10710 10711 10713 10716 10719 10722 10726 10728 10729 10732 10735 10738 10740 10742 10745 10747 10747 10749 10749 10750 10752 10753 10754 10754 10754 10755 10755 10755 10755 10754 10754 10752 10751 10750 10749 10748 10747 10745 10744 10743 10742 10741 10739 10737 10736 10734 10732 10730 10728 10726 10724 10721 10719 10717 10715 10712 10710 10707 10704 10702 10699 10697 10694 10692 10689 10687 10685 10683 10679 10676 10674 10671 10668 10665 10663 10660 10656 10652 10649 10645 10641 10637 10634
10709 10709 10708 10708 10708 10708 10709 10711 10714 10717 10720 10723 10726 10728 10731 10734 10737 10739 10741 10743 10744 10745 10746 10747 10748 10749 10750 10751 10751 10752 10752 10752 10752 10752 10752 10750 10749 10748 10747 10746 10745 10743 10742 10740 10739 10738 10736 10735 10733 10731 10729 10727 10725 10723 10721 10719 10717 10715 10712 10710 10707 10705 10702 10700 10698 10695 10692 10690 10687 10684 10681 10679 10678 10675 10671 10669 10665 10662 10660 10657 10654 10650 10646 10642 10638 10634 10631 10627
10708 10708 10708 10707 10707 10708 10708 10710 10712 10716 10719 10722 10724 10727 10730 10732 10735 10737 10739 10740 10741 10743 10744 10745 10746 10747 10748 10748 10749 10749 10749 10750 10750 10749 10749 10747 10746 10745 10744 10743 10741 10740 10738 10737 10735 10734 10732 10730 10729 10727 10725 10723 10721 10719 10716 10714 10712 10709 10707 10704 10702 10700 10698 10695 10693 10691 10688 10686 10683 10679 10676 10673 10673 10670 10666 10662 10659 10656 10654 10651 10648 10644 10640 10636 10632 10627 10624 10620
10708 10708 10708 10707 10708 10708 10709 10710 10712 10715 10718 10721 10723 10726 10728 10731 10733 10735 10737 10738 10738 10741 10742 10743 10743 10744 10745 10746 10746 10747 10747 10747 10747 10746 10745 10744 10743 10742 10741 10739 10738 10736 10734 10733 10731 10729 10728 10726 10724 10723 10721 10718 10716 10714 10712 10709 10707 10704 10701 10699 10697 10695 10693 10690 10688 10686 10684 10681 10678 10676 10670 10667 10668 10666 10661 10657 10652 10650 10647 10645 10642 10637 10633 10629 10624 10620 10617 10613
10708 10708 10708 10708 10708 10709 10710 10711 10713 10716 10718 10720 10722 10725 10727 10729 10731 10734 10735 10735 10736 10738 10740 10740 10741 10742 10743 10743 10744 10744 10744 10744 10743 10743 10742 10741 10740 10738 10737 10736 10735 10733 10731 10729 10728 10726 10724 10722 10720 10718 10716 10714 10712 10709 10707 10704 10702 10699 10697 10695 10692 10690 10688 10685 10683 10681 10679 10676 10674 10672 10665 10659 10662 10661 10657 10652 10647 10643 10641 10639 10635 10630 10625 10621 10617 10613 10609 10605
10709 10708 10708 10709 10709 10710 10711 10712 10714 10716 10718 10720 10722 10724 10726 10729 10731 10733 10734 10734 10735 10737 10737 10738 10739 10740 10741 10741 10741 10741 10741 10741 10740 10739 10739 10738 10737 10735 10734 10733 10731 10730 10728 10726 10725 10723 10721 10718 10717 10714 10712 10710 10707 10705 10702 10700 10698 10695 10693 10691 10688 10686 10684 10681 10678 10675 10673 10671 10667 10667 10660 10651 10654 10657 10652 10647 10641 10637 10634 10632 10628 10622 10618 10614 10610 10606 10601 10597
10709 10709 10709 10709 10710 10711 10712 10713 10715 10716 10718 10720 10722 10724 10726 10728 10730 10731 10732 10733 10734 10734 10735 10736 10737 10738 10738 10738 10738 10738 10738 10737 10737 10736 10736 10734 10733 10732 10731 10729 10728 10726 10725 10723 10721 10719 10717 10715 10713 10710 10708 10705 10703 10701 10698 10696 10693 10691 10689 10686 10684 10682 10680 10677 10674 10670 10667 10665 10661 10661 10657 10647 10647 10651 10647 10642 10635 10631 10627 10625 10621 10615 10611 10607 10602 10598 10592 10588
10710 10709 10709 10710 10710 10711 10712 10714 10715 10717 10718 10720 10722 10724 10726 10727 10729 10730 10731 10731 10732 10733 10733 10734 10735 10735 10735 10735 10735 10735 10735 10734 10734 10733 10732 10731 10730 10729 10727 10726 10724 10723 10721 10720 10718 10716 10714 10711 10709 10707 10704 10701 10699 10697 10694 10692 10689 10687 10685 10682 10680 10678 10676 10673 10670 10667 10664 10661 10657 10657 10653 10643 10641 10644 10641 10636 10630 10624 10620 10617 10614 10609 10604 10600 10595 10590 10584 10579
10710 10710 10710 10711 10711 10711 10712 10714 10715 10716 10718 10719 10721 10723 10725 10726 10727 10728 10729 10730 10730 10731 10731 10732 10732 10732 10733 10733 10732 10732 10732 10731 10731 10730 10729 10728 10727 10725 10724 10723 10721 10720 10718 10716 10714 10712 10710 10708 10706 10703 10701 10698 10695 10693 10691 10688 10686 10683 10681 10679 10676 10673 10672 10669 10667 10664 10661 10658 10653 10652 10648 10638 10636 10637 10634 10631 10625 10618 10614 10609 10606 10602 10597 10592 10587 10581 10575 10570
10709 10710 10711 10711 10711 10712 10712 10713 10714 10715 10717 10718 10720 10721 10723 10724 10725 10726 10727 10728 10728 10729 10729 10730 10730 10730 10730 10730 10729 10729 10729 10728 10727 10727 10726 10725 10724 10723 10722 10720 10719 10717 10715 10713 10711 10709 10707 10704 10702 10699 10697 10694 10691 10689 10687 10684 10682 10679 10677 10674 10671 10669 10668 10666 10663 10660 10656 10653 10648 10647 10642 10633 10630 10630 10627 10624 10619 10612 10607 10603 10599 10594 10589 10584 10579 10573 10567 10561
10708 10709 10710 10711 10711 10712 10712 10713 10713 10714 10716 10717 10718 10720 10721 10722 10723 10724 10725 10725 10726 10726 10727 10727 10727 10727 10727 10727 10727 10726 10726 10725 10724 10724 10723 10722 10721 10720 10719 10717 10716 10714 10712 10710 10707 10705 10703 10701 10698 10695 10693 10690 10687 10685 10683 10680 10678 10675 10673 10670 10667 10664 10662 10661 10658 10655 10652 10647 10642 10641 10637 10628 10624 10622 10619 10616 10613 10607 10600 10596 10592 10586 10582 10577 10571 10565 10559 10553
10708 10708 10709 10710 10710 10711 10711 10712 10713 10713 10714 10715 10716 10718 10719 10720 10721 10722 10723 10723 10723 10724 10724 10725 10725 10725 10725 10724 10724 10724 10723 10722 10721 10721 10720 10719 10718 10717 10715 10714 10712 10710 10708 10706 10703 10701 10699 10697 10694 10691 10689 10686 10683 10681 10679 10676 10674 10671 10668 10666 10664 10660 10656 10655 10653 10650 10647 10643 10636 10634 10630 10622 10619 10615 10610 10607 10604 10600 10594 10590 10585 10579 10574 10569 10563 10557 10551 10545
10707 10707 10707 10708 10708 10709 10709 10710 10711 10711 10712 10712 10714 10715 10717 10718 10719 10719 10720 10720 10721 10721 10722 10722 10722 10722 10722 10722 10722 10721 10720 10720 10719 10718 10717 10716 10715 10714 10712 10710 10708 10706 10703 10701 10699 10697 10695 10692 10689 10687 10684 10682 10679 10677 10674 10672 10670 10668 10665 10662 10660 10657 10652 10648 10647 10643 10641 10639 10632 10628 10623 10615 10612 10609 10604 10601 10597 10592 10587 10583 10578 10572 10567 10562 10556 10550 10543 10537
10705 10705 10705 10706 10706 10707 10707 10708 10710 10710 10710 10711 10712 10713 10714 10716 10716 10717 10718 10717 10718 10718 10719 10719 10719 10719 10720 10719 10719 10718 10718 10717 10716 10715 10715 10713 10712 10711 10709 10707 10705 10702 10700 10698 10695 10693 10691 10688 10685 10683 10680 10678 10675 10673 10670 10668 10666 10663 10661 10657 10654 10653 10649 10643 10640 10638 10635 10634 10628 10624 10618 10607 10602 10602 10598 10595 10591 10585 10580 10576 10571 10565 10560 10554 10549 10543 10536 10531
10702 10703 10703 10704 10704 10705 10705 10706 10707 10708 10708 10709 10710 10711 10712 10714 10714 10715 10715 10716 10715 10716 10716 10717 10717 10717 10717 10717 10716 10716 10715 10714 10714 10713 10712 10711 10709 10708 10706 10703 10701 10699 10697 10694 10692 10689 10687 10684 10681 10679 10676 10674 10671 10669 10666 10664 10661 10659 10656 10653 10650 10647 10645 10640 10635 10631 10628 10627 10624 10620 10615 10603 10593 10592 10592 10589 10584 10578 10573 10569 10564 10558 10552 10546 10541 10536 10530 10525
10699 10700 10701 10701 10702 10702 10703 10704 10705 10706 10707 10707 10708 10709 10710 10711 10712 10712 10713 10714 10714 10714 10714 10714 10715 10715 10714 10714 10714 10713 10712 10711 10711 10710 10709 10708 10706 10704 10702 10700 10698 10695 10693 10690 10688 10686 10683 10680 10678 10675 10672 10670 10667 10664 10662 10659 10656 10654 10652 10649 10645 10641 10640 10637 10631 10626 10621 10619 10618 10616 10613 10602 10587 10582 10584 10582 10577 10571 10566 10562 10557 10551 10545 10539 10534 10529 10524 10520
10697 10698 10698 10699 10699 10700 10701 10701 10702 10704 10704 10705 10706 10707 10708 10708 10709 10709 10710 10711 10712 10712 10712 10712 10712 10712 10712 10712 10711 10710 10710 10709 10708 10707 10706 10704 10702 10700 10698 10696 10694 10691 10689 10687 10684 10682 10679 10676 10673 10671 10668 10665 10663 10660 10657 10654 10651 10649 10647 10644 10641 10637 10633 10631 10628 10623 10617 10610 10608 10608 10609 10602 10583 10573 10577 10576 10570 10565 10559 10555 10550 10544 10538 10531 10526 10522 10519 10515
10694 10694 10695 10696 10696 10697 10698 10699 10699 10701 10702 10703 10704 10705 10706 10706 10707 10707 10708 10709 10709 10710 10710 10710 10710 10710 10710 10709 10709 10708 10707 10706 10705 10704 10703 10701 10699 10697 10695 10692 10690 10688 10685 10683 10680 10677 10675 10672 10669 10666 10663 10660 10658 10655 10653 10650 10647 10643 10641 10638 10635 10632 10628 10625 10622 10618 10614 10607 10601 10598 10600 10601 10583 10566 10569 10568 10562 10558 10553 10548 10543 10537 10531 10524 10519 10516 10512 10508
10691 10691 10691 10692 10693 10694 10695 10696 10696 10697 10699 10700 10701 10702 10703 10704 10705 10706 10706 10706 10707 10708 10708 10708 10708 10708 10707 10706 10706 10705 10704 10704 10702 10701 10699 10697 10695 10693 10691 10688 10686 10684 10681 10679 10676 10673 10670 10667 10664 10661 10659 10656 10653 10650 10648 10645 10643 10638 10635 10632 10629 10626 10622 10619 10615 10611 10608 10603 10597 10590 10588 10592 10580 10562 10561 10559 10552 10550 10546 10541 10537 10529 10522 10516 10512 10510 10506 10502
10687 10687 10687 10689 10689 10690 10691 10692 10693 10694 10695 10697 10698 10699 10701 10702 10702 10703 10703 10704 10704 10705 10705 10705 10706 10705 10705 10704 10704 10703 10702 10701 10699 10697 10696 10694 10692 10690 10687 10685 10682 10680 10678 10675 10672 10669 10666 10663 10660 10657 10654 10651 10648 10645 10642 10639 10637 10633 10629 10626 10623 10620 10616 10613 10609 10605 10601 10595 10591 10585 10578 10579 10571 10555 10554 10553 10545 10543 10539 10533 10530 10522 10515 10510 10506 10503 10500 10496
10683 10683 10683 10684 10685 10686 10687 10688 10690 10691 10692 10694 10695 10696 10698 10699 10699 10699 10700 10700 10701 10702 10702 10703 10703 10702 10702 10701 10701 10700 10699 10698 10696 10694 10692 10690 10688 10686 10683 10681 10679 10676 10674 10671 10668 10664 10662 10658 10655 10652 10649 10646 10643 10639 10636 10633 10631 10627 10624 10621 10617 10614 10610 10607 10604 10599 10595 10590 10584 10579 10571 10569 10560 10543 10541 10546 10540 10538 10534 10527 10521 10514 10509 10505 10500 10496 10493 10490
10679 10679 10679 10680 10681 10682 10683 10685 10686 10687 10688 10690 10692 10693 10695 10696 10696 10697 10697 10697 10698 10699 10700 10700 10700 10700 10700 10699 10698 10697 10696 10695 10693 10691 10689 10686 10684 10682 10680 10677 10675 10673 10670 10667 10664 10660 10657 10654 10650 10647 10644 10641 10637 10634 10630 10627 10624 10621 10618 10615 10611 10608 10605 10601 10597 10592 10590 10585 10579 10573 10565 10561 10554 10535 10529 10535 10535 10534 10530 10520 10513 10508 10504 10500 10494 10491 10487 10484
10674 10675 10675 10676 10677 10678 10680 10681 10683 10684 10685 10687 10689 10690 10692 10692 10693 10694 10694 10695 10696 10697 10698 10698 10698 10697 10697 10696 10695 10694 10693 10691 10690 10688 10685 10683 10680 10678 10676 10674 10671 10669 10666 10663 10660 10656 10652 10649 10645 10642 10638 10635 10631 10628 10624 10621 10617 10614 10611 10609 10605 10602 10599 10595 10591 10586 10584 10579 10574 10569 10560 10552 10543 10526 10520 10525 10529 10530 10524 10514 10506 10501 10497 10493 10489 10487 10483 10479
10670 10671 10671 10672 10674 10675 10677 10678 10680 10682 10683 10685 10686 10688 10689 10690 10691 10691 10692 10694 10695 10696 10696 10695 10695 10695 10694 10693 10692 10691 10690 10688 10686 10684 10682 10679 10677 10674 10671 10670 10667 10665 10662 10658 10655 10652 10648 10643 10640 10636 10633 10629 10626 10622 10618 10615 10611 10607 10603 10601 10599 10596 10593 10590 10586 10581 10579 10575 10570 10564 10556 10547 10531 10513 10511 10517 10521 10521 10515 10507 10502 10496 10491 10487 10484 10481 10477 10474
10666 10667 10668 10669 10671 10672 10674 10676 10677 10679 10681 10682 10684 10686 10687 10688 10689 10690 10691 10692 10692 10693 10693 10693 10693 10692 10691 10690 10689 10688 10687 10685 10682 10680 10678 10675 10673 10670 10667 10665 10663 10661 10659 10655 10651 10648 10643 10638 10634 10631 10627 10623 10620 10616 10612 10609 10605 10600 10596 10592 10590 10588 10587 10585 10582 10578 10574 10570 10566 10558 10549 10541 10523 10503 10502 10512 10515 10513 10507 10501 10497 10491 10486 10483 10478 10475 10472 10468
10664 10665 10666 10667 10669 10670 10672 10674 10675 10678 10679 10681 10682 10684 10685 10686 10688 10689 10690 10690 10690 10691 10691 10691 10690 10689 10688 10687 10686 10685 10684 10681 10679 10676 10674 10671 10668 10665 10662 10661 10658 10656 10654 10651 10648 10644 10640 10634 10629 10625 10621 10616 10613 10610 10606 10603 10599 10594 10589 10585 10581 10577 10576 10577 10576 10573 10570 10565 10560 10553 10543 10533 10516 10497 10497 10507 10509 10504 10500 10496 10491 10485 10481 10478 10474 10470 10467 10463
10662 10663 10664 10666 10667 10669 10671 10673 10675 10677 10678 10679 10681 10683 10684 10685 10687 10688 10688 10688 10688 10689 10688 10688 10687 10686 10685 10684 10682 10682 10680 10678 10675 10672 10670 10667 10665 10661 10658 10656 10653 10650 10648 10646 10644 10640 10637 10631 10625 10621 10616 10611 10607 10603 10599 10596 10593 10589 10583 10579 10575 10569 10565 10565 10565 10564 10563 10561 10555 10546 10538 10524 10506 10492 10493 10502 10502 10496 10494 10491 10485 10480 10476 10473 10469 10465 10462 10458
10662 10663 10664 10665 10667 10668 10670 10672 10674 10675 10677 10679 10680 10682 10683 10684 10685 10686 10686 10686 10686 10686 10686 10685 10684 10683 10681 10680 10679 10678 10677 10675 10671 10668 10666 10663 10660 10657 10653 10651 10648 10645 10642 10640 10638 10635 10633 10628 10621 10616 10611 10606 10602 10597 10593 10589 10586 10583 10578 10573 10569 10564 10559 10556 10556 10554 10551 10553 10549 10540 10532 10517 10497 10488 10490 10495 10495 10490 10488 10485 10479 10475 10471 10467 10464 10460 10456 10452
10661 10662 10663 10664 10666 10667 10669 10671 10672 10674 10676 10678 10679 10680 10681 10682 10683 10684 10684 10684 10684 10684 10683 10682 10681 10680 10678 10677 10676 10674 10673 10671 10667 10664 10661 10658 10656 10652 10649 10647 10644 10640 10637 10634 10632 10629 10627 10624 10617 10611 10606 10601 10596 10592 10587 10581 10578 10575 10571 10567 10562 10558 10555 10550 10550 10548 10542 10543 10540 10533 10527 10509 10492 10491 10490 10488 10488 10485 10481 10478 10472 10467 10463 10459 10456 10453 10449 10444
10661 10662 10663 10664 10665 10666 10668 10670 10672 10674 10675 10676 10678 10679 10680 10680 10681 10682 10682 10682 10682 10681 10680 10679 10678 10677 10675 10673 10672 10670 10669 10667 10664 10661 10658 10654 10651 10648 10645 10643 10639 10636 10632 10629 10626 10622 10621 10619 10613 10605 10600 10595 10590 10586 10581 10575 10571 10567 10563 10559 10554 10552 10550 10545 10544 10541 10535 10534 10531 10527 10519 10499 10488 10495 10494 10487 10485 10481 10476 10471 10465 10459 10453 10450 10447 10444 10440 10434
10661 10662 10663 10663 10664 10665 10667 10669 10671 10672 10674 10675 10676 10677 10678 10678 10679 10679 10680 10679 10679 10678 10677 10676 10674 10673 10671 10669 10668 10666 10664 10662 10659 10656 10654 10650 10646 10643 10641 10638 10634 10631 10627 10623 10620 10617 10614 10614 10610 10601 10594 10589 10585 10580 10576 10569 10564 10560 10555 10551 10546 10544 10544 10540 10537 10531 10527 10526 10524 10522 10512 10490 10486 10496 10493 10488 10485 10480 10475 10469 10461 10455 10448 10443 10441 10437 10432 10426
10660 10661 10662 10662 10663 10665 10666 10668 10669 10671 10672 10673 10674 10675 10675 10676 10677 10677 10677 10676 10676 10674 10673 10672 10671 10669 10667 10666 10664 10662 10659 10657 10653 10651 10649 10645 10642 10639 10636 10633 10630 10626 10622 10618 10615 10611 10608 10607 10605 10598 10589 10584 10580 10574 10569 10564 10559 10555 10549 10544 10540 10538 10537 10535 10530 10522 10517 10517 10517 10518 10507 10484 10483 10492 10487 10484 10482 10475 10472 10467 10459 10452 10443 10437 10434 10431 10426 10419
10659 10660 10661 10662 10663 10665 10666 10668 10669 10670 10671 10672 10672 10673 10673 10674 10674 10674 10674 10672 10671 10670 10669 10668 10667 10665 10663 10661 10660 10658 10655 10652 10649 10646 10644 10640 10638 10635 10632 10628 10625 10621 10617 10613 10609 10606 10603 10601 10599 10593 10585 10579 10573 10567 10562 10557 10553 10549 10544 10539 10535 10533 10531 10530 10525 10516 10510 10509 10509 10513 10505 10482 10477 10484 10481 10477 10474 10467 10464 10460 10453 10445 10437 10431 10426 10421 10417 10411
10658 10659 10661 10662 10663 10664 10665 10667 10668 10668 10669 10669 10670 10671 10671 10671 10671 10670 10669 10668 10667 10666 10665 10664 10663 10662 10660 10657 10655 10653 10651 10648 10645 10642 10639 10635 10632 10630 10627 10623 10620 10616 10612 10608 10604 10600 10598 10595 10592 10587 10580 10574 10567 10560 10555 10551 10547 10542 10537 10533 10530 10528 10524 10522 10520 10513 10507 10504 10501 10506 10504 10483 10471 10474 10473 10469 10465 10459 10454 10450 10446 10438 10429 10423 10420 10413 10406 10400
10657 10659 10660 10661 10663 10664 10664 10665 10666 10666 10667 10667 10668 10668 10668 10668 10668 10667 10666 10665 10664 10663 10662 10660 10659 10657 10655 10653 10651 10648 10647 10645 10641 10637 10634 10631 10627 10625 10622 10618 10614 10611 10607 10603 10598 10594 10591 10589 10586 10582 10575 10568 10560 10554 10549 10545 10541 10536 10530 10527 10525 10522 10517 10513 10513 10511 10506 10501 10497 10498 10499 10485 10470 10467 10466 10462 10456 10451 10445 10440 10436 10430 10421 10414 10410 10404 10397 10390
10657 10658 10659 10660 10661 10662 10662 10663 10664 10665 10665 10665 10666 10666 10665 10665 10664 10664 10663 10662 10660 10659 10658 10656 10654 10653 10651 10649 10647 10644 10642 10641 10638 10633 10629 10626 10623 10619 10616 10612 10608 10605 10601 10598 10593 10589 10585 10581 10579 10576 10571 10563 10554 10546 10542 10539 10535 10529 10525 10523 10520 10516 10512 10508 10506 10506 10503 10497 10491 10491 10493 10484 10469 10463 10461 10456 10450 10444 10437 10430 10424 10418 10413 10407 10402 10395 10386 10379
10656 10657 10658 10659 10659 10660 10661 10662 10663 10663 10663 10664 10664 10663 10663 10662 10661 10660 10659 10658 10657 10655 10653 10652 10650 10649 10646 10644 10642 10640 10637 10636 10633 10629 10625 10622 10618 10614 10610 10606 10602 10599 10595 10592 10588 10584 10579 10574 10570 10569 10567 10562 10553 10544 10539 10535 10530 10524 10521 10519 10515 10510 10507 10504 10501 10499 10498 10493 10484 10481 10485 10479 10464 10458 10456 10449 10443 10438 10430 10422 10414 10406 10400 10397 10393 10387 10378 10370
10655 10656 10657 10658 10658 10659 10660 10660 10661 10661 10661 10661 10661 10660 10659 10658 10657 10656 10655 10654 10652 10651 10650 10648 10646 10644 10642 10640 10638 10635 10632 10630 10628 10624 10620 10616 10613 10608 10604 10600 10596 10593 10589 10586 10583 10579 10574 10568 10561 10558 10556 10553 10549 10544 10541 10537 10530 10524 10520 10516 10512 10506 10502 10499 10495 10493 10492 10490 10481 10471 10475 10476 10462 10452 10450 10443 10436 10432 10426 10418 10409 10398 10389 10384 10380 10375 10367 10360
10654 10655 10655 10656 10657 10657 10657 10658 10658 10658 10658 10658 10658 10657 10656 10654 10653 10652 10651 10650 10648 10647 10645 10644 10642 10640 10638 10636 10633 10630 10627 10624 10621 10618 10614 10610 10607 10603 10599 10595 10591 10587 10584 10581 10577 10574 10570 10562 10555 10551 10545 10539 10537 10536 10535 10533 10528 10523 10519 10514 10508 10503 10499 10494 10490 10487 10485 10485 10479 10466 10462 10466 10459 10449 10444 10437 10430 10425 10418 10411 10403 10392 10383 10375 10369 10363 10355 10347
10652 10653 10653 10654 10654 10654 10655 10655 10655 10655 10654 10654 10654 10653 10652 10651 10649 10648 10647 10646 10644 10643 10641 10639 10638 10636 10633 10631 10628 10625 10622 10619 10615 10612 10608 10604 10600 10597 10593 10589 10585 10582 10578 10575 10571 10568 10565 10558 10550 10545 10537 10531 10530 10529 10527 10525 10522 10519 10515 10510 10504 10499 10495 10489 10483 10480 10477 10476 10475 10465 10453 10450 10448 10442 10435 10426 10420 10415 10408 10402 10394 10384 10375 10367 10360 10353 10344 10335
10650 10651 10651 10651 10651 10651 10652 10652 10652 10651 10651 10650 10650 10649 10648 10647 10646 10644 10643 10642 10640 10639 10637 10635 10633 10631 10629 10626 10624 10620 10617 10613 10609 10605 10602 10598 10594 10591 10587 10583 10579 10576 10572 10569 10565 10562 10559 10553 10546 10540 10531 10525 10526 10525 10521 10519 10517 10514 10511 10505 10499 10494 10489 10483 10475 10470 10467 10464 10463 10460 10450 10440 10434 10431 10425 10415 10406 10400 10395 10388 10381 10371 10362 10354 10346 10339 10332 10323
10648 10648 10648 10648 10649 10648 10649 10649 10648 10648 10647 10647 10646 10646 10645 10644 10642 10641 10639 10638 10636 10634 10633 10631 10628 10626 10624 10621 10618 10615 10612 10608 10604 10600 10596 10592 10588 10585 10582 10577 10574 10571 10567 10564 10559 10555 10552 10547 10541 10536 10527 10521 10521 10520 10517 10515 10512 10508 10504 10498 10493 10488 10482 10476 10468 10460 10457 10454 10449 10446 10442 10433 10424 10419 10415 10406 10395 10386 10379 10373 10366 10356 10345 10337 10330 10323 10315 10308
10646 10646 10646 10646 10646 10646 10646 10646 10645 10645 10644 10643 10643 10642 10641 10640 10639 10637 10636 10634 10632 10630 10628 10626 10624 10621 10618 10615 10612 10609 10606 10602 10599 10594 10590 10587 10583 10579 10576 10573 10569 10566 10562 10559 10554 10549 10545 10541 10537 10532 10525 10519 10518 10515 10512 10511 10508 10503 10498 10491 10486 10482 10477 10470 10461 10452 10448 10446 10440 10434 10431 10426 10418 10411 10405 10397 10384 10372 10362 10354 10349 10341 10332 10323 10316 10308 10300 10292
10644 10644 10644 10644 10643 10643 10643 10642 10642 10642 10641 10640 10640 10639 10638 10636 10635 10633 10632 10630 10628 10626 10623 10621 10618 10615 10613 10610 10607 10604 10600 10596 10593 10589 10585 10582 10578 10574 10572 10569 10565 10562 10557 10553 10548 10543 10540 10537 10533 10530 10524 10518 10515 10511 10506 10505 10503 10499 10493 10486 10480 10476 10471 10463 10452 10441 10438 10439 10436 10427 10421 10417 10410 10404 10399 10392 10379 10364 10349 10336 10329 10325 10318 10310 10302 10293 10284 10276
10642 10642 10642 10642 10641 10641 10640 10640 10639 10639 10638 10637 10636 10635 10634 10633 10631 10629 10628 10625 10623 10621 10618 10616 10613 10610 10608 10604 10601 10598 10594 10590 10586 10582 10579 10577 10573 10569 10567 10564 10560 10556 10552 10548 10543 10539 10536 10534 10531 10528 10523 10516 10512 10508 10502 10499 10498 10494 10488 10481 10475 10471 10465 10458 10447 10433 10426 10426 10425 10418 10412 10405 10397 10390 10386 10383 10376 10363 10346 10327 10314 10307 10301 10294 10286 10276 10266 10258